[[{"header":{"parameterUnit":"m.s-1","parameterCategory":1,"la1":30.2991,"la2":30.254,"lo1":-89.0895,"lo2":-89.0444,"dy":0.0017,"dx":0.0017,"nx":28,"ny":28,"refTime":"2025-05-22T03:00:00:Z","depth":0,"parameterNumber":2,"parameterNumberName":"U-component_of_WINDS"},"data":[0,0,0,0,0,0,0,0,0,0,0,0,0,0,0,0,0,0,0,0,0,0,0,0,0,0,0,0,0,0,0,0,0,0,0,0,0,0,0,0,0,0,0,0,0,0,0,0,0,0,0,0,0,0,0,0,0,0,0.874,0.874,0,0.8722,0.8721,0.8721,0.8696,0.8696,0.8695,0.8695,0.8675,0.8675,0.8675,0,0,0,0,0,0,0,0,0,0,0,0,0,0.8754,0.8754,0.874,0.874,0.874,0.8722,0.8721,0.8721,0.8696,0.8696,0.8695,0.8695,0.8675,0.8675,0.8675,0,0,0,0,0,0,0,0,0,0,0,0,0,0.8743,0.8754,0.874,0.8725,0.8724,0.8722,0.8721,0.8721,0.8696,0.8696,0.8695,0.8695,0.8675,0.8675,0.8675,0.8686,0,0,0.8674,0.8674,0,0,0,0,0,0,0,0,0.8743,0.8742,0.8728,0.8726,0.8724,0.8711,0.8719,0.8709,0.8697,0.8707,0.8695,0.8694,0.8687,0.8686,0.8684,0.8685,0.8684,0.8674,0.8674,0.8674,0.8674,0,0,0,0,0,0,0,0.8744,0.8743,0.8733,0.8727,0.8725,0.8719,0.8717,0.8717,0.8701,0.8706,0.8704,0.8702,0.8686,0.8684,0.8683,0.8683,0.8674,0.8674,0.8674,0.8673,0.8694,0.8695,0,0,0,0,0,0,0.8747,0.8744,0.8733,0.8732,0.8733,0.872,0.8717,0.8716,0.8701,0.8698,0.8703,0.8701,0.8685,0.8683,0.8682,0.8696,0.8674,0.8673,0.8673,0.8694,0.8695,0.8695,0,0,0,0,0,0,0.8748,0.8747,0.8734,0.8737,0.8735,0.872,0.8719,0.8716,0.8713,0.8698,0.8695,0.8704,0.8684,0.8683,0.8685,0.8694,0.8673,0.8673,0.8693,0.8694,0.8695,0.8721,0,0,0,0,0,0,0.8748,0.8747,0.8751,0.8738,0.8735,0.8738,0.8719,0.8716,0.8713,0.8711,0.8698,0.8695,0.8684,0.8686,0.8685,0.8694,0.8673,0.8692,0.8693,0.8695,0.8719,0.8723,0.8726,0,0,0,0,0,0.8749,0.8758,0.8751,0.875,0.874,0.8738,0.8737,0.8723,0.8714,0.8718,0.8709,0.8696,0.8694,0.8686,0.8685,0.8694,0.8691,0.8693,0.8694,0.8718,0.8722,0.8726,0,0,0,0,0,0,0.8772,0.8756,0.8748,0.8754,0.8748,0.8734,0.8738,0.8728,0.8724,0.8722,0.8705,0.8702,0.8708,0.8701,0.8693,0.8705,0.8691,0.8692,0.8709,0.8713,0.8716,0.8718,0.8673,0,0,0,0,0,0.8778,0.8778,0.8764,0.877,0.8768,0.8754,0.8752,0.8743,0.8735,0.8732,0.8723,0.8716,0.8714,0.8713,0.871,0.8718,0.8716,0.8724,0.8727,0.873,0.8732,0.8737,0.8741,0.87,0.87,0.87,0,0,0.8789,0.8781,0.8782,0.8775,0.8769,0.8769,0.8751,0.8752,0.8753,0.8732,0.8735,0.8728,0.8719,0.8726,0.8728,0.872,0.8742,0.8732,0.8734,0.8734,0.8739,0.8743,0.8746,0.8701,0.8701,0.8701,0,0,0.8811,0.8805,0.881,0.8805,0.8796,0.8787,0.8789,0.8777,0.8772,0.8775,0.876,0.876,0.8756,0.8752,0.8748,0.8771,0.876,0.877,0.8788,0.8793,0.8796,0.8799,0.8808,0.8812,0.8772,0.8772,0.8772,0,0.8827,0.8827,0.8814,0.8816,0.8814,0.8797,0.8802,0.8798,0.8789,0.8788,0.878,0.8776,0.8769,0.8774,0.878,0.8778,0.878,0.8772,0.8797,0.88,0.8802,0.8811,0.8814,0.8773,0.8773,0.8773,0.8773,0,0.8848,0.8848,0.8854,0.8847,0.8845,0.8849,0.8836,0.8836,0.8827,0.8819,0.8823,0.8814,0.881,0.881,0.8801,0.8815,0.8811,0.88,0.8786,0.8808,0.8815,0.8818,0.8775,0.8775,0.8775,0.8774,0,0,0.8882,0.8869,0.8872,0.8869,0.8859,0.886,0.8863,0.886,0.8861,0.8856,0.8859,0.8857,0.8848,0.8845,0.8835,0.884,0.886,0.8829,0.8828,0.8835,0.8876,0.8885,0.8889,0.8852,0.8853,0.8853,0.8877,0,0.8903,0.8909,0.8898,0.8907,0.8908,0.8892,0.8896,0.8891,0.8884,0.8884,0.8876,0.8875,0.8862,0.8861,0.8865,0.8856,0.8868,0.8854,0.8855,0.8856,0.8859,0.8893,0.8901,0.8924,0.888,0.8881,0.8881,0,0.8928,0.8926,0.8935,0.8927,0.8927,0.893,0.8927,0.8927,0.8921,0.8916,0.8913,0.8902,0.8906,0.8892,0.8897,0.8889,0.8888,0.8885,0.8885,0.8885,0.887,0.8894,0.8931,0.8935,0.8885,0.8885,0.8885,0,0.8954,0.8953,0.8959,0.8957,0.8947,0.895,0.8946,0.8939,0.8939,0.8936,0.8936,0.8933,0.8932,0.8931,0.8919,0.891,0.8927,0.8911,0.8923,0.8923,0.8927,0.8927,0.8965,0.8926,0.8926,0.8926,0.8926,0,0.8979,0.8985,0.8971,0.8974,0.8982,0.8969,0.8976,0.897,0.8965,0.8968,0.8954,0.8957,0.8941,0.8943,0.8934,0.894,0.894,0.8936,0.8934,0.8938,0.8938,0.8937,0.8936,0.8927,0.8927,0.8926,0.8926,0,0.9009,0.8999,0.9005,0.8996,0.8994,0.9,0.8992,0.8995,0.8988,0.8991,0.8991,0.898,0.8981,0.897,0.8968,0.8962,0.8973,0.8967,0.8975,0.8974,0.8986,0.8986,0.9026,0.9031,0.8988,0.8988,0.8989,0,0.9026,0.9031,0.9023,0.9024,0.9021,0.9023,0.9022,0.901,0.901,0.9005,0.9009,0.9009,0.9009,0.9011,0.9003,0.9002,0.8997,0.9011,0.8996,0.9001,0.8998,0.8998,0.8999,0.9014,0.9015,0.9015,0.9015,0,0.9057,0.9053,0.9053,0.9052,0.9053,0.9051,0.9049,0.905,0.9037,0.9038,0.904,0.9039,0.9039,0.9039,0.9037,0.9033,0.9023,0.902,0.9023,0.9027,0.9032,0.9031,0.8984,0.9019,0.9019,0.9019,0.9018,0.9018,0.9082,0.9086,0.9082,0.9083,0.908,0.9079,0.9082,0.9076,0.9077,0.9076,0.9068,0.9072,0.9067,0.9063,0.906,0.9063,0.9056,0.9059,0.906,0.9062,0.9065,0.9031,0.9062,0.9062,0.9062,0.9062,0.9062,0,0.9113,0.911,0.9112,0.9109,0.9111,0.9101,0.9099,0.91,0.9104,0.91,0.9101,0.9103,0.9104,0.9096,0.9096,0.9099,0.9095,0.91,0.91,0.9099,0.907,0.9068,0.9104,0.9104,0.9104,0.9104,0.9104,0.9104,0.913,0.9137,0.9133,0.9139,0.9135,0.9139,0.9138,0.9137,0.9135,0.9138,0.9139,0.9134,0.913,0.913,0.913,0.9128,0.9129,0.9136,0.9132,0.9105,0.9101,0.9097,0.9096,0.9136,0.9136,0.9161,0.9162,0.9162]},{"header":{"parameterUnit":"m.s-1","parameterCategory":1,"la1":30.2991,"la2":30.254,"lo1":-89.0895,"lo2":-89.0444,"dy":0.0017,"dx":0.0017,"nx":28,"ny":28,"refTime":"2025-05-22T03:00:00:Z","depth":0,"parameterNumber":3,"parameterNumberName":"V-component_of_WINDS"},"data":[0,0,0,0,0,0,0,0,0,0,0,0,0,0,0,0,0,0,0,0,0,0,0,0,0,0,0,0,0,0,0,0,0,0,0,0,0,0,0,0,0,0,0,0,0,0,0,0,0,0,0,0,0,0,0,0,0,0,-0.8933,-0.8934,0,-0.8955,-0.8955,-0.8956,-0.893,-0.8929,-0.8928,-0.8927,-0.8948,-0.8949,-0.8951,0,0,0,0,0,0,0,0,0,0,0,0,0,-0.8869,-0.887,-0.8933,-0.8934,-0.8934,-0.8955,-0.8955,-0.8956,-0.893,-0.8929,-0.8928,-0.8927,-0.8948,-0.8949,-0.8951,0,0,0,0,0,0,0,0,0,0,0,0,0,-0.8894,-0.887,-0.8933,-0.8924,-0.8923,-0.8955,-0.8955,-0.8956,-0.893,-0.8929,-0.8928,-0.8926,-0.8947,-0.8949,-0.8951,-0.8993,0,0,-0.8958,-0.8959,0,0,0,0,0,0,0,0,-0.8893,-0.8897,-0.8925,-0.8924,-0.8924,-0.8938,-0.894,-0.8968,-0.8931,-0.8928,-0.8927,-0.8925,-0.8946,-0.8948,-0.8955,-0.8994,-0.8995,-0.8958,-0.8959,-0.896,-0.8961,0,0,0,0,0,0,0,-0.8891,-0.8896,-0.8942,-0.8925,-0.8925,-0.8918,-0.892,-0.8945,-0.8944,-0.8928,-0.8926,-0.8929,-0.8945,-0.8953,-0.8956,-0.8995,-0.8958,-0.896,-0.8961,-0.8962,-0.9071,-0.9072,0,0,0,0,0,0,-0.8891,-0.8894,-0.8941,-0.8943,-0.8905,-0.892,-0.8923,-0.8935,-0.8944,-0.8944,-0.893,-0.8928,-0.895,-0.8953,-0.8956,-0.9006,-0.896,-0.8962,-0.8964,-0.9069,-0.9071,-0.9073,0,0,0,0,0,0,-0.8889,-0.8895,-0.894,-0.8918,-0.8923,-0.8923,-0.8937,-0.8936,-0.8944,-0.8946,-0.8946,-0.8939,-0.8949,-0.8953,-0.8985,-0.9007,-0.8963,-0.8965,-0.9067,-0.907,-0.9072,-0.9107,0,0,0,0,0,0,-0.8888,-0.8895,-0.8911,-0.8919,-0.8925,-0.8969,-0.8939,-0.8938,-0.8948,-0.8945,-0.8954,-0.8954,-0.8948,-0.8981,-0.8987,-0.9009,-0.8967,-0.9065,-0.9068,-0.9071,-0.9104,-0.911,-0.9116,0,0,0,0,0,-0.8885,-0.8919,-0.8912,-0.8918,-0.8945,-0.897,-0.8973,-0.8967,-0.895,-0.8966,-0.8967,-0.8953,-0.9004,-0.8985,-0.8991,-0.9014,-0.9064,-0.9067,-0.9071,-0.9101,-0.9109,-0.9116,0,0,0,0,0,0,-0.8913,-0.892,-0.8912,-0.8949,-0.8959,-0.8966,-0.8986,-0.8975,-0.899,-0.8986,-0.8978,-0.898,-0.9013,-0.9017,-0.8996,-0.9055,-0.9031,-0.9036,-0.9052,-0.9059,-0.9065,-0.9064,-0.8969,0,0,0,0,0,-0.8924,-0.8944,-0.8949,-0.8982,-0.8987,-0.8986,-0.8996,-0.8991,-0.9001,-0.9005,-0.9008,-0.9018,-0.9036,-0.9048,-0.9064,-0.9104,-0.9106,-0.9123,-0.9129,-0.9134,-0.9138,-0.916,-0.9168,-0.9084,-0.9084,-0.9084,0,0,-0.8946,-0.8952,-0.8965,-0.8987,-0.8995,-0.9016,-0.8989,-0.9013,-0.9028,-0.9008,-0.9038,-0.9041,-0.9051,-0.9087,-0.9103,-0.9091,-0.9162,-0.9139,-0.9143,-0.9144,-0.9165,-0.9173,-0.918,-0.9087,-0.9086,-0.9086,0,0,-0.8997,-0.9003,-0.9032,-0.904,-0.9051,-0.905,-0.9057,-0.9065,-0.9067,-0.9097,-0.9083,-0.9101,-0.9132,-0.914,-0.9148,-0.9204,-0.9191,-0.9209,-0.924,-0.9262,-0.9268,-0.9274,-0.9294,-0.9301,-0.9213,-0.9214,-0.9214,0,-0.9022,-0.9054,-0.9047,-0.9072,-0.9082,-0.9066,-0.9095,-0.9103,-0.9119,-0.9126,-0.9112,-0.9152,-0.9157,-0.9195,-0.9209,-0.9216,-0.9224,-0.9208,-0.9268,-0.9274,-0.9279,-0.9298,-0.9306,-0.9216,-0.9215,-0.9215,-0.9215,0,-0.9085,-0.9107,-0.9129,-0.9146,-0.9158,-0.9185,-0.9182,-0.9196,-0.919,-0.919,-0.9221,-0.9228,-0.9246,-0.9254,-0.9248,-0.9292,-0.9284,-0.9269,-0.9245,-0.9289,-0.9307,-0.9314,-0.9219,-0.9218,-0.9217,-0.9217,0,0,-0.9153,-0.9167,-0.9175,-0.9183,-0.9195,-0.9212,-0.9238,-0.9256,-0.9268,-0.928,-0.9302,-0.9329,-0.9316,-0.9325,-0.932,-0.9339,-0.9383,-0.9322,-0.9322,-0.9333,-0.9432,-0.9443,-0.9451,-0.9375,-0.9376,-0.9377,-0.9431,0,-0.9204,-0.925,-0.9245,-0.9289,-0.9309,-0.9295,-0.9317,-0.9327,-0.9329,-0.9346,-0.9347,-0.9367,-0.9348,-0.9354,-0.9372,-0.9374,-0.9402,-0.937,-0.9395,-0.9396,-0.9392,-0.9461,-0.9472,-0.9522,-0.9438,-0.9439,-0.944,0,-0.927,-0.9285,-0.9331,-0.9341,-0.9349,-0.937,-0.9387,-0.9404,-0.9415,-0.9414,-0.9426,-0.9417,-0.9443,-0.9418,-0.9454,-0.9432,-0.9442,-0.9444,-0.9446,-0.9448,-0.942,-0.9464,-0.9538,-0.9546,-0.9451,-0.945,-0.9449,0,-0.9315,-0.9347,-0.9379,-0.9386,-0.9398,-0.9413,-0.9419,-0.9429,-0.944,-0.9455,-0.9462,-0.948,-0.9489,-0.9503,-0.9499,-0.9481,-0.9536,-0.9511,-0.9536,-0.9536,-0.9548,-0.9547,-0.9625,-0.9555,-0.9555,-0.9555,-0.9554,0,-0.9373,-0.9401,-0.94,-0.9419,-0.9451,-0.9446,-0.9477,-0.9481,-0.949,-0.9509,-0.9498,-0.9516,-0.9511,-0.9529,-0.9526,-0.9557,-0.9561,-0.9561,-0.956,-0.9562,-0.9562,-0.9569,-0.9565,-0.9557,-0.9556,-0.9556,-0.9555,0,-0.9429,-0.9429,-0.9462,-0.9472,-0.9475,-0.9498,-0.9506,-0.9524,-0.9525,-0.955,-0.9556,-0.9557,-0.9578,-0.9576,-0.96,-0.9598,-0.9636,-0.963,-0.9632,-0.9631,-0.9657,-0.9655,-0.9741,-0.9752,-0.9675,-0.9676,-0.9676,0,-0.9465,-0.9487,-0.9499,-0.9512,-0.9519,-0.954,-0.9552,-0.9548,-0.9561,-0.9576,-0.9592,-0.9613,-0.9629,-0.9664,-0.9666,-0.9684,-0.9679,-0.9709,-0.9682,-0.9684,-0.968,-0.9679,-0.9681,-0.9714,-0.9714,-0.9715,-0.9716,0,-0.9531,-0.953,-0.9548,-0.9567,-0.9582,-0.9597,-0.961,-0.9621,-0.9618,-0.9633,-0.9655,-0.9668,-0.9693,-0.9713,-0.973,-0.9736,-0.9726,-0.9724,-0.9731,-0.9734,-0.9734,-0.9734,-0.9646,-0.9722,-0.9722,-0.9721,-0.9721,-0.972,-0.9578,-0.9597,-0.9609,-0.963,-0.964,-0.9653,-0.9671,-0.9674,-0.9693,-0.9713,-0.9709,-0.9734,-0.9745,-0.9768,-0.9775,-0.9794,-0.9784,-0.9794,-0.9796,-0.9799,-0.9802,-0.9731,-0.9798,-0.9797,-0.9797,-0.9797,-0.9797,0,-0.9643,-0.965,-0.967,-0.9689,-0.9706,-0.9695,-0.971,-0.9724,-0.9746,-0.9758,-0.9775,-0.98,-0.982,-0.9825,-0.9844,-0.9859,-0.9855,-0.9864,-0.9863,-0.9864,-0.981,-0.9802,-0.9867,-0.9867,-0.9867,-0.9867,-0.9867,-0.9867,-0.9678,-0.971,-0.9711,-0.9748,-0.9755,-0.978,-0.9789,-0.9801,-0.981,-0.984,-0.9857,-0.986,-0.9869,-0.9889,-0.9907,-0.9908,-0.9915,-0.9927,-0.9926,-0.9875,-0.9868,-0.9861,-0.9854,-0.9928,-0.9928,-0.9978,-0.9979,-0.9979]}]]